Regional Weather Roundup
Issued by NWS

Home | Current Version | Previous Version | Text Only | Print | Product List | Glossary On
Versions: 1 2 3 4 5 6 7 8 9 10 11 12 13 14 15 16 17 18 19 20 21 22 23 24 25 26 27 28 29 30 31 32 33 34 35 36 37 38 39 40 41 42 43 44 45 46 47 48 49 50
000
ASUS46 KSTO 230715
RWRCA

NORTHERN AND CENTRAL CA REGIONAL WEATHER ROUNDUP
NATIONAL WEATHER SERVICE SACRAMENTO CA
1100 PM PST THU FEB 22 2018

NOTE: FAIR INDICATES FEW OR NO CLOUDS BELOW 12,000 FEET WITH NO
SIGNIFICANT WEATHER AND/OR OBSTRUCTIONS TO VISIBILITY.

CAZ001-003-230800-
NORTHWEST AREA

CITY           SKY/WX    TMP DP  RH WIND       PRES   REMARKS
CRESCENT CITY  CLEAR     42  25  50 N9        30.39R
UKIAH          CLEAR     40  23  50 NW15G31   30.26R WCI  32
$$

CAZ006-505>513-230800-
BAY AREA

CITY           SKY/WX    TMP DP  RH WIND       PRES   REMARKS
SANTA ROSA     CLEAR     38  29  70 NW13      30.23R WCI  30
SAN RAFAEL     N/A       44  MM  MM MISG
NAPA           CLEAR     36  29  75 W6        30.23S WCI  31
CONCORD        CLEAR     43  31  62 NW5       30.23R
OAKLAND CITY   N/A      MM  MM  MM MISG
OAKLAND        PTCLDY    44  31  60 NW13      30.24R
SAN FRAN CITY  N/A       45  MM  54 MISG
SAN FRAN ARPT  PTCLDY    46  30  53 NW7       30.25R
LIVERMORE      CLEAR     39  32  76 CALM      30.22R
HAYWARD        CLEAR     44  27  51 NW5       30.23S
REDWOOD CITY   N/A       44  MM  64 MISG
MOFFETT ARPT   CLEAR     44  33  65 SW5       30.25R
SAN JOSE ARPT  PTCLDY    44  34  67 W9        30.24R
$$
CAZ034-037-514>518-230800-
CENTRAL COAST

CITY           SKY/WX    TMP DP  RH WIND       PRES   REMARKS
WATSONVILLE    CLEAR     42  32  67 W5        30.25R
SALINAS        CLEAR     45  33  63 W8        30.24S
MONTEREY       PTCLDY    48  35  60 W15G24    30.26S
SAN LUIS OBISP CLEAR     45  39  79 CALM      30.23F
SANTA MARIA    PTCLDY    45  42  89 CALM      30.25S
$$
CAZ015-016-230800-
NORTHERN SACRAMENTO VALLEY

CITY           SKY/WX    TMP DP  RH WIND       PRES   REMARKS
REDDING        CLEAR     38  23  55 NW6       30.21R WCI  33
RED BLUFF      CLEAR     38  23  55 NW7       30.22R WCI  33
OROVILLE       CLEAR     33  31  92 CALM      30.22R
$$
CAZ016>018-230800-
SOUTHERN SACRAMENTO VALLEY

CITY           SKY/WX    TMP DP  RH WIND       PRES   REMARKS
AUBURN         CLEAR     30  30 100 CALM      30.15R
BEALE AFB      CLEAR     31  29  91 NE3       30.19R
LINCOLN        FAIR      28  28 100 E5        30.20R WCI  23
MARYSVILLE     FOG       31  28  89 W3        30.21S VSB 3/4
SAC INTL ARPT  CLEAR     33  33 100 CALM      30.21R
MATHER AIRPORT CLEAR     34  32  93 NE3       30.19R
DOWNTOWN SAC   N/A       39  MM  MM MISG
SAC EXEC ARPT  CLEAR     34  34 100 NW3       30.20R
VACAVILLE      CLEAR     35  34  96 CALM      30.22R
TRAVIS AFB     CLEAR     33  32  96 W8        30.19S WCI  27
$$
CAZ019>021-230800-
SAN JOAQUIN VALLEY

CITY           SKY/WX    TMP DP  RH WIND       PRES   REMARKS
STOCKTON       CLEAR     40  33  76 W10       30.20S WCI  33
MODESTO        CLEAR     40  34  79 NW7       30.19S
MERCED         CLEAR     40  33  76 NW12      30.18R WCI  33
LEMOORE        PTCLDY    42  30  62 NW13      30.20S
FRESNO         MOCLDY    44  33  65 W9        30.19S
HANFORD        CLOUDY    46  35  65 NW10      30.20S
PORTERVILLE    RAIN      44  38  79 E3        30.19S
BAKERSFIELD    LGT RAIN  48  35  60 NW15G26   30.18S
$$
CAZ011-012-071-230800-
NORTHERN MOUNTAINS

CITY           SKY/WX    TMP DP  RH WIND       PRES   REMARKS
YREKA          CLOUDY    28  16  60 N9        30.25R WCI  19
MOUNT SHASTA   MOCLDY    25  17  72 NW14G31   30.14R WCI  13
ALTURAS        FLURRIES  19  13  77 W5        30.06R WCI  12
$$
CAZ011-012-071-230800-
SIERRA NEVADA MTNS

CITY           SKY/WX    TMP DP  RH WIND       PRES   REMARKS
BLUE CANYON    CLEAR     19  11  70 N5        30.01R WCI  12
TRUCKEE        CLEAR      9   5  85 CALM      30.00R
TAHOE VLY ARPT LGT SNOW  18  14  84 S5        29.94S FOG     WCI  11
MAMMOTH LAKES  FLURRIES  16  15  98 SE3       29.89S
$$



USA.gov is the U.S. government's official web portal to all federal, state and local government web resources and services.